Location: Burleson Fire Department Station 2
(32.5391°N, 97.3075°W)
Time: 01:02:25
(UTC+00:00)

NOAA 15 - Pass Details

Date: 14 December 2025
Orbit: 793 x 810 km, 98.5° (Epoch: 20 January)

Event Time Altitude Azimuth Distance (km) Brightness Sun altitude
Rises 12:52:02 0° 28° (NNE) 3,302 7.9 -6.8°
Reaches altitude 10° 12:54:47 10° 42° (NE) 2,367 7.3 -6.2°
Maximum altitude 12:59:01 25° 96° (E) 1,563 7.2 -5.4°
Drops below altitude 10° 13:03:14 10° 151° (SSE) 2,352 8.0 -4.6°
Sets 13:05:56 0° 164° (SSE) 3,277 8.4 -4.1°
